Time,TemperatureF,DewpointF,PressureIn,WindDirection,WindDirectionDegrees,WindSpeedMPH,WindSpeedGustMPH,Humidity,HourlyPrecipIn,Conditions,Clouds,dailyrainin,SolarRadiationWatts/m^2,SoftwareType,DateUTC
2013-05-16 00:00:00,74.4,58.0,29.87,SE,143,0.0,5.0,56,0.00,,,0.00,0,weatherlink.com 1.10,2013-05-16 04:00:00,
2013-05-16 00:15:00,73.7,58.0,29.87,South,174,0.0,3.0,58,0.00,,,0.00,0,weatherlink.com 1.10,2013-05-16 04:15:00,
2013-05-16 00:30:00,73.2,57.0,29.87,SSW,192,3.0,5.0,58,0.00,,,0.00,0,weatherlink.com 1.10,2013-05-16 04:30:00,
2013-05-16 00:45:00,73.1,58.0,29.87,SSE,161,0.0,4.0,59,0.00,,,0.00,0,weatherlink.com 1.10,2013-05-16 04:45:00,
2013-05-16 01:00:00,72.9,58.0,29.87,SSE,168,1.0,3.0,59,0.00,,,0.00,0,weatherlink.com 1.10,2013-05-16 05:00:00,
2013-05-16 01:15:00,71.9,57.0,29.87,SSE,165,0.0,2.0,60,0.00,,,0.00,0,weatherlink.com 1.10,2013-05-16 05:15:00,
2013-05-16 01:30:00,71.4,57.0,29.87,South,171,1.0,4.0,61,0.00,,,0.00,0,weatherlink.com 1.10,2013-05-16 05:30:00,
2013-05-16 01:45:00,71.3,57.0,29.86,South,180,1.0,4.0,60,0.00,,,0.00,0,weatherlink.com 1.10,2013-05-16 05:45:00,
2013-05-16 02:00:00,71.5,56.0,29.86,South,175,3.0,5.0,58,0.00,,,0.00,0,weatherlink.com 1.10,2013-05-16 06:00:00,
2013-05-16 02:15:00,71.7,55.0,29.86,South,175,1.0,4.0,57,0.00,,,0.00,0,weatherlink.com 1.10,2013-05-16 06:15:00,
2013-05-16 02:30:00,71.6,55.0,29.86,SSE,152,1.0,3.0,56,0.00,,,0.00,0,weatherlink.com 1.10,2013-05-16 06:30:00,
2013-05-16 02:45:00,70.9,55.0,29.86,SE,146,0.0,3.0,57,0.00,,,0.00,0,weatherlink.com 1.10,2013-05-16 06:45:00,
2013-05-16 03:00:00,71.1,55.0,29.86,SSE,147,0.0,3.0,57,0.00,,,0.00,0,weatherlink.com 1.10,2013-05-16 07:00:00,
2013-05-16 03:15:00,70.5,54.0,29.86,SSE,153,1.0,3.0,57,0.00,,,0.00,0,weatherlink.com 1.10,2013-05-16 07:15:00,
2013-05-16 03:30:00,70.3,54.0,29.85,SSE,162,0.0,3.0,57,0.00,,,0.00,0,weatherlink.com 1.10,2013-05-16 07:30:00,
2013-05-16 03:45:00,69.9,53.0,29.85,WSW,238,1.0,3.0,56,0.00,,,0.00,0,weatherlink.com 1.10,2013-05-16 07:45:00,
2013-05-16 04:00:00,70.3,53.0,29.85,NNE,14,0.0,5.0,55,0.00,,,0.00,0,weatherlink.com 1.10,2013-05-16 08:00:00,
2013-05-16 04:15:00,69.6,53.0,29.85,NNE,23,0.0,2.0,56,0.00,,,0.00,0,weatherlink.com 1.10,2013-05-16 08:15:00,
2013-05-16 04:30:00,69.3,53.0,29.86,WSW,253,0.0,2.0,56,0.00,,,0.00,0,weatherlink.com 1.10,2013-05-16 08:30:00,
2013-05-16 04:45:00,69.2,52.0,29.86,NNE,21,0.0,2.0,55,0.00,,,0.00,0,weatherlink.com 1.10,2013-05-16 08:45:00,
2013-05-16 05:00:00,69.0,52.0,29.86,WNW,282,4.0,6.0,54,0.00,,,0.00,0,weatherlink.com 1.10,2013-05-16 09:00:00,
2013-05-16 05:15:00,69.8,51.0,29.86,NW,312,0.0,5.0,52,0.00,,,0.00,0,weatherlink.com 1.10,2013-05-16 09:15:00,
2013-05-16 05:30:00,69.7,52.0,29.86,NNW,342,0.0,3.0,53,0.00,,,0.00,0,weatherlink.com 1.10,2013-05-16 09:30:00,
2013-05-16 05:45:00,68.5,52.0,29.86,NNW,341,0.0,2.0,55,0.00,,,0.00,0,weatherlink.com 1.10,2013-05-16 09:45:00,
2013-05-16 06:00:00,68.4,51.0,29.86,NNW,339,1.0,2.0,55,0.00,,,0.00,0,weatherlink.com 1.10,2013-05-16 10:00:00,
2013-05-16 06:15:00,68.3,51.0,29.86,SW,226,3.0,5.0,54,0.00,,,0.00,5,weatherlink.com 1.10,2013-05-16 10:15:00,
2013-05-16 06:30:00,68.6,51.0,29.87,NW,318,2.0,6.0,53,0.00,,,0.00,12,weatherlink.com 1.10,2013-05-16 10:30:00,
2013-05-16 06:46:00,69.8,50.0,29.87,West,266,0.0,6.0,50,0.00,,,0.00,16,weatherlink.com 1.10,2013-05-16 10:46:00,
2013-05-16 07:01:00,67.6,51.0,29.88,West,275,0.0,3.0,56,0.00,,,0.00,21,weatherlink.com 1.10,2013-05-16 11:01:00,
2013-05-16 07:16:00,67.1,50.0,29.88,NW,304,0.0,3.0,55,0.00,,,0.00,26,weatherlink.com 1.10,2013-05-16 11:16:00,
2013-05-16 07:31:00,67.4,51.0,29.89,NNE,33,3.0,3.0,55,0.00,,,0.00,30,weatherlink.com 1.10,2013-05-16 11:31:00,
2013-05-16 07:46:00,68.1,51.0,29.89,NW,323,0.0,5.0,54,0.00,,,0.00,35,weatherlink.com 1.10,2013-05-16 11:46:00,
2013-05-16 08:01:00,69.2,51.0,29.90,WNW,285,3.0,7.0,52,0.00,,,0.00,40,weatherlink.com 1.10,2013-05-16 12:01:00,
2013-05-16 08:16:00,70.4,51.0,29.90,NNW,337,3.0,11.0,51,0.00,,,0.00,49,weatherlink.com 1.10,2013-05-16 12:16:00,
2013-05-16 08:31:00,71.0,52.0,29.90,WNW,300,3.0,7.0,51,0.00,,,0.00,76,weatherlink.com 1.10,2013-05-16 12:31:00,
2013-05-16 08:46:00,71.9,52.0,29.90,WNW,291,1.0,10.0,50,0.00,,,0.00,403,weatherlink.com 1.10,2013-05-16 12:46:00,
2013-05-16 09:01:00,72.9,53.0,29.90,WNW,299,3.0,10.0,50,0.00,,,0.00,406,weatherlink.com 1.10,2013-05-16 13:01:00,
2013-05-16 09:16:00,73.5,52.0,29.90,WSW,247,4.0,9.0,47,0.00,,,0.00,496,weatherlink.com 1.10,2013-05-16 13:16:00,
2013-05-16 09:31:00,74.0,53.0,29.89,WNW,297,4.0,10.0,48,0.00,,,0.00,526,weatherlink.com 1.10,2013-05-16 13:31:00,
2013-05-16 09:46:00,74.6,53.0,29.89,NW,311,5.0,10.0,47,0.00,,,0.00,543,weatherlink.com 1.10,2013-05-16 13:46:00,
2013-05-16 10:01:00,75.2,55.0,29.89,West,277,4.0,11.0,49,0.00,,,0.00,621,weatherlink.com 1.10,2013-05-16 14:01:00,
2013-05-16 10:16:00,76.2,55.0,29.89,WNW,293,5.0,10.0,48,0.00,,,0.00,642,weatherlink.com 1.10,2013-05-16 14:16:00,
2013-05-16 10:31:00,76.8,55.0,29.88,WSW,237,7.0,11.0,47,0.00,,,0.00,724,weatherlink.com 1.10,2013-05-16 14:31:00,
2013-05-16 10:46:00,76.5,55.0,29.89,NNW,343,4.0,9.0,48,0.00,,,0.00,642,weatherlink.com 1.10,2013-05-16 14:46:00,
2013-05-16 11:01:00,77.5,56.0,29.89,SW,236,4.0,9.0,47,0.00,,,0.00,749,weatherlink.com 1.10,2013-05-16 15:01:00,
2013-05-16 11:16:00,78.2,57.0,29.89,West,270,4.0,10.0,48,0.00,,,0.00,489,weatherlink.com 1.10,2013-05-16 15:16:00,
2013-05-16 11:31:00,78.3,56.0,29.89,WSW,245,7.0,11.0,46,0.00,,,0.00,888,weatherlink.com 1.10,2013-05-16 15:31:00,
2013-05-16 11:46:00,78.7,56.0,29.89,SW,217,2.0,10.0,46,0.00,,,0.00,979,weatherlink.com 1.10,2013-05-16 15:46:00,
2013-05-16 12:01:00,79.4,56.0,29.89,WSW,249,1.0,12.0,45,0.00,,,0.00,838,weatherlink.com 1.10,2013-05-16 16:01:00,
2013-05-16 12:16:00,80.4,56.0,29.88,West,266,0.0,9.0,43,0.00,,,0.00,904,weatherlink.com 1.10,2013-05-16 16:16:00,
2013-05-16 12:31:00,81.4,58.0,29.88,West,266,2.0,12.0,45,0.00,,,0.00,826,weatherlink.com 1.10,2013-05-16 16:31:00,
2013-05-16 12:46:00,81.1,57.0,29.88,SW,218,1.0,11.0,44,0.00,,,0.00,976,weatherlink.com 1.10,2013-05-16 16:46:00,
2013-05-16 13:01:00,80.6,57.0,29.88,WNW,283,3.0,9.0,45,0.00,,,0.00,937,weatherlink.com 1.10,2013-05-16 17:01:00,
2013-05-16 13:17:00,80.6,56.0,29.88,WSW,247,4.0,10.0,43,0.00,,,0.00,555,weatherlink.com 1.10,2013-05-16 17:17:00,
2013-05-16 13:32:00,81.5,59.0,29.88,SSW,197,5.0,7.0,46,0.00,,,0.00,867,weatherlink.com 1.10,2013-05-16 17:32:00,
2013-05-16 13:47:00,80.5,57.0,29.87,SSW,193,5.0,10.0,44,0.00,,,0.00,404,weatherlink.com 1.10,2013-05-16 17:47:00,
2013-05-16 14:02:00,80.5,58.0,29.87,West,271,2.0,9.0,46,0.00,,,0.00,466,weatherlink.com 1.10,2013-05-16 18:02:00,
2013-05-16 14:17:00,80.4,58.0,29.87,WSW,254,1.0,8.0,47,0.00,,,0.00,469,weatherlink.com 1.10,2013-05-16 18:17:00,
2013-05-16 14:32:00,81.3,58.0,29.87,WNW,286,5.0,7.0,45,0.00,,,0.00,427,weatherlink.com 1.10,2013-05-16 18:32:00,
2013-05-16 14:47:00,80.5,58.0,29.87,West,266,3.0,9.0,46,0.00,,,0.00,485,weatherlink.com 1.10,2013-05-16 18:47:00,
2013-05-16 15:02:00,80.3,57.0,29.86,WNW,285,2.0,12.0,45,0.00,,,0.00,399,weatherlink.com 1.10,2013-05-16 19:02:00,
2013-05-16 15:17:00,80.3,58.0,29.86,SW,223,2.0,7.0,47,0.00,,,0.00,396,weatherlink.com 1.10,2013-05-16 19:17:00,
2013-05-16 15:32:00,80.2,60.0,29.86,West,272,0.0,10.0,50,0.00,,,0.00,496,weatherlink.com 1.10,2013-05-16 19:32:00,
2013-05-16 15:47:00,80.2,58.0,29.86,South,180,1.0,10.0,47,0.00,,,0.00,399,weatherlink.com 1.10,2013-05-16 19:47:00,
2013-05-16 16:02:00,81.4,60.0,29.85,WSW,251,3.0,4.0,48,0.00,,,0.00,838,weatherlink.com 1.10,2013-05-16 20:02:00,
2013-05-16 16:17:00,83.6,59.0,29.85,WSW,237,5.0,6.0,43,0.00,,,0.00,759,weatherlink.com 1.10,2013-05-16 20:17:00,
2013-05-16 16:32:00,83.0,58.0,29.85,SSW,200,4.0,11.0,43,0.00,,,0.00,622,weatherlink.com 1.10,2013-05-16 20:32:00,
2013-05-16 16:47:00,83.2,57.0,29.86,WNW,291,7.0,9.0,41,0.00,,,0.00,594,weatherlink.com 1.10,2013-05-16 20:47:00,
2013-05-16 17:02:00,83.1,58.0,29.86,NNW,330,4.0,11.0,42,0.00,,,0.00,343,weatherlink.com 1.10,2013-05-16 21:02:00,
2013-05-16 17:17:00,82.7,59.0,29.86,NNW,343,3.0,9.0,44,0.00,,,0.00,469,weatherlink.com 1.10,2013-05-16 21:17:00,
2013-05-16 17:32:00,82.1,57.0,29.86,WSW,253,4.0,7.0,43,0.00,,,0.00,355,weatherlink.com 1.10,2013-05-16 21:32:00,
2013-05-16 17:47:00,81.7,56.0,29.86,West,278,2.0,10.0,41,0.00,,,0.00,478,weatherlink.com 1.10,2013-05-16 21:47:00,
2013-05-16 18:02:00,81.6,55.0,29.86,West,262,2.0,8.0,40,0.00,,,0.00,199,weatherlink.com 1.10,2013-05-16 22:02:00,
2013-05-16 18:17:00,81.4,56.0,29.85,West,266,2.0,8.0,42,0.00,,,0.00,211,weatherlink.com 1.10,2013-05-16 22:17:00,
2013-05-16 18:32:00,81.4,56.0,29.86,NNW,330,1.0,10.0,42,0.00,,,0.00,302,weatherlink.com 1.10,2013-05-16 22:32:00,
2013-05-16 18:47:00,80.4,56.0,29.86,SW,224,2.0,7.0,43,0.00,,,0.00,90,weatherlink.com 1.10,2013-05-16 22:47:00,
2013-05-16 19:02:00,79.4,56.0,29.87,WNW,302,3.0,8.0,44,0.00,,,0.00,46,weatherlink.com 1.10,2013-05-16 23:02:00,
2013-05-16 19:17:00,78.3,59.0,29.88,WNW,302,0.0,3.0,51,0.00,,,0.00,47,weatherlink.com 1.10,2013-05-16 23:17:00,
2013-05-16 19:32:00,76.8,59.0,29.89,NNW,328,0.0,2.0,54,0.00,,,0.00,23,weatherlink.com 1.10,2013-05-16 23:32:00,
2013-05-16 19:47:00,75.9,58.0,29.89,NNW,328,0.0,1.0,55,0.00,,,0.00,11,weatherlink.com 1.10,2013-05-16 23:47:00,
2013-05-16 20:02:00,75.3,56.0,29.94,WNW,300,9.0,28.0,52,0.00,,,0.00,0,weatherlink.com 1.10,2013-05-17 00:02:00,
2013-05-16 20:17:00,72.4,56.0,29.95,NE,49,1.0,22.0,56,0.00,,,0.00,0,weatherlink.com 1.10,2013-05-17 00:17:00,
2013-05-16 20:32:00,70.6,55.0,29.95,NNW,327,3.0,16.0,59,0.00,,,0.00,0,weatherlink.com 1.10,2013-05-17 00:32:00,
2013-05-16 20:47:00,69.2,56.0,29.95,ENE,70,1.0,7.0,63,0.00,,,0.00,0,weatherlink.com 1.10,2013-05-17 00:47:00,
2013-05-16 21:02:00,68.3,56.0,29.95,NE,41,1.0,6.0,64,0.00,,,0.00,0,weatherlink.com 1.10,2013-05-17 01:02:00,
2013-05-16 21:17:00,67.5,56.0,29.94,NNE,31,0.0,4.0,67,0.00,,,0.00,0,weatherlink.com 1.10,2013-05-17 01:17:00,
2013-05-16 21:32:00,67.0,56.0,29.95,North,4,0.0,3.0,68,0.00,,,0.00,0,weatherlink.com 1.10,2013-05-17 01:32:00,
2013-05-16 21:47:00,66.6,56.0,29.95,NNE,21,0.0,3.0,69,0.00,,,0.00,0,weatherlink.com 1.10,2013-05-17 01:47:00,
2013-05-16 22:02:00,66.5,56.0,29.95,ENE,74,0.0,3.0,69,0.00,,,0.00,0,weatherlink.com 1.10,2013-05-17 02:02:00,
2013-05-16 22:17:00,66.0,56.0,29.96,WNW,295,1.0,3.0,70,0.00,,,0.00,0,weatherlink.com 1.10,2013-05-17 02:17:00,
2013-05-16 22:32:00,65.7,56.0,29.95,East,93,0.0,3.0,72,0.00,,,0.00,0,weatherlink.com 1.10,2013-05-17 02:32:00,
2013-05-16 22:47:00,65.2,56.0,29.95,East,93,0.0,1.0,73,0.00,,,0.00,0,weatherlink.com 1.10,2013-05-17 02:47:00,
2013-05-16 23:02:00,64.9,56.0,29.95,East,94,0.0,1.0,73,0.00,,,0.00,0,weatherlink.com 1.10,2013-05-17 03:02:00,
2013-05-16 23:17:00,64.7,56.0,29.95,East,93,0.0,2.0,74,0.00,,,0.00,0,weatherlink.com 1.10,2013-05-17 03:17:00,
2013-05-16 23:32:00,64.7,56.0,29.95,East,93,0.0,1.0,74,0.00,,,0.00,0,weatherlink.com 1.10,2013-05-17 03:32:00,
2013-05-16 23:47:00,64.3,56.0,29.95,East,93,0.0,1.0,74,0.00,,,0.00,0,weatherlink.com 1.10,2013-05-17 03:47:00,